Time,TemperatureF,DewpointF,PressureIn,WindDirection,WindDirectionDegrees,WindSpeedMPH,WindSpeedGustMPH,Humidity,HourlyPrecipIn,Conditions,Clouds,dailyrainin,SoftwareType,DateUTC
2013-07-03 00:01:00,76.5,73.7,30.07,NW,324,0.0,6.0,91,0.00,,,1.78,Wunderground v.1.15,2013-07-03 04:01:00,
2013-07-03 00:05:00,76.6,74.1,30.07,NE,46,0.0,6.0,92,0.00,,,0.00,Wunderground v.1.15,2013-07-03 04:05:00,
2013-07-03 00:10:00,76.6,73.8,30.07,WNW,298,0.0,6.0,91,0.00,,,0.00,Wunderground v.1.15,2013-07-03 04:10:00,
2013-07-03 00:11:00,76.7,74.0,30.07,SE,138,2.0,3.0,91,0.00,,,0.00,weatherlink.com 1.10,2013-07-03 04:11:00,
2013-07-03 00:20:00,76.8,74.0,30.06,ENE,64,1.0,1.0,91,0.00,,,0.00,Wunderground v.1.15,2013-07-03 04:20:00,
2013-07-03 00:26:00,76.9,74.0,30.06,SE,143,0.0,5.0,91,0.00,,,0.00,weatherlink.com 1.10,2013-07-03 04:26:00,
2013-07-03 00:30:00,76.8,74.0,30.05,WSW,246,1.0,6.0,91,0.00,,,0.00,Wunderground v.1.15,2013-07-03 04:30:00,
2013-07-03 00:40:00,76.7,74.2,30.05,NW,320,1.0,6.0,92,0.00,,,0.00,Wunderground v.1.15,2013-07-03 04:40:00,
2013-07-03 00:45:00,76.7,74.2,30.05,ENE,75,1.0,6.0,92,0.00,,,0.00,Wunderground v.1.15,2013-07-03 04:45:00,
2013-07-03 00:55:00,76.6,74.1,30.05,ENE,70,1.0,6.0,92,0.00,,,0.00,Wunderground v.1.15,2013-07-03 04:55:00,
2013-07-03 01:05:00,76.4,73.9,30.05,NE,51,0.0,6.0,92,0.00,,,0.00,Wunderground v.1.15,2013-07-03 05:05:00,
2013-07-03 01:10:00,76.3,74.1,30.06,ENE,68,0.0,6.0,93,0.00,,,0.00,Wunderground v.1.15,2013-07-03 05:10:00,
2013-07-03 01:15:00,76.2,74.0,30.05,ENE,69,1.0,6.0,93,0.00,,,0.00,Wunderground v.1.15,2013-07-03 05:15:00,
2013-07-03 01:25:00,76.1,74.0,30.06,SE,141,1.0,3.0,93,0.00,,,0.00,weatherlink.com 1.10,2013-07-03 05:25:00,
2013-07-03 01:30:00,76.0,73.8,30.05,East,84,0.0,6.0,93,0.00,,,0.00,Wunderground v.1.15,2013-07-03 05:30:00,
2013-07-03 01:40:00,75.9,73.7,30.06,NE,34,0.0,6.0,93,0.00,,,0.00,Wunderground v.1.15,2013-07-03 05:40:00,
2013-07-03 01:50:00,75.9,74.0,30.06,NNE,22,0.0,6.0,94,0.00,,,0.00,Wunderground v.1.15,2013-07-03 05:50:00,
2013-07-03 01:54:00,75.9,74.0,30.06,ENE,69,0.0,4.0,94,0.00,,,0.00,weatherlink.com 1.10,2013-07-03 05:54:00,
2013-07-03 02:00:00,75.9,74.0,30.06,ESE,118,1.0,3.0,94,0.00,,,0.00,Wunderground v.1.15,2013-07-03 06:00:00,
2013-07-03 02:05:00,75.8,73.6,30.06,ENE,62,1.0,3.0,93,0.00,,,0.00,Wunderground v.1.15,2013-07-03 06:05:00,
2013-07-03 02:15:00,75.7,73.5,30.06,North,353,1.0,3.0,93,0.00,,,0.00,Wunderground v.1.15,2013-07-03 06:15:00,
2013-07-03 02:20:00,75.7,73.5,30.06,NE,54,0.0,3.0,93,0.00,,,0.00,Wunderground v.1.15,2013-07-03 06:20:00,
2013-07-03 02:24:00,75.6,73.0,30.05,NE,41,0.0,4.0,93,0.00,,,0.00,weatherlink.com 1.10,2013-07-03 06:24:00,
2013-07-03 02:25:00,75.6,73.4,30.05,SE,136,0.0,3.0,93,0.00,,,0.00,Wunderground v.1.15,2013-07-03 06:25:00,
2013-07-03 02:30:00,75.5,73.3,30.05,SE,129,0.0,3.0,93,0.00,,,0.00,Wunderground v.1.15,2013-07-03 06:30:00,
2013-07-03 02:35:00,75.4,73.2,30.05,NE,44,1.0,3.0,93,0.00,,,0.00,Wunderground v.1.15,2013-07-03 06:35:00,
2013-07-03 02:45:00,75.3,73.1,30.05,NE,36,0.0,3.0,93,0.00,,,0.00,Wunderground v.1.15,2013-07-03 06:45:00,
2013-07-03 02:55:00,75.1,72.9,30.05,ENE,62,0.0,3.0,93,0.00,,,0.00,Wunderground v.1.15,2013-07-03 06:55:00,
2013-07-03 03:00:00,75.0,72.8,30.04,NE,49,1.0,3.0,93,0.00,,,0.00,Wunderground v.1.15,2013-07-03 07:00:00,
2013-07-03 03:08:00,74.9,73.0,30.04,NNW,335,0.0,3.0,93,0.00,,,0.00,weatherlink.com 1.10,2013-07-03 07:08:00,
2013-07-03 03:15:00,74.8,72.6,30.05,ENE,57,0.0,3.0,93,0.00,,,0.00,Wunderground v.1.15,2013-07-03 07:15:00,
2013-07-03 03:25:00,74.7,72.9,30.04,NE,44,0.0,3.0,94,0.00,,,0.00,Wunderground v.1.15,2013-07-03 07:25:00,
2013-07-03 03:35:00,74.6,72.8,30.04,ENE,58,0.0,3.0,94,0.00,,,0.00,Wunderground v.1.15,2013-07-03 07:35:00,
2013-07-03 03:40:00,74.5,72.7,30.04,ENE,58,0.0,3.0,94,0.00,,,0.00,Wunderground v.1.15,2013-07-03 07:40:00,
2013-07-03 03:45:00,74.5,72.7,30.04,SSE,157,0.0,3.0,94,0.00,,,0.00,Wunderground v.1.15,2013-07-03 07:45:00,
2013-07-03 03:55:00,74.4,72.6,30.05,NE,34,0.0,3.0,94,0.00,,,0.00,Wunderground v.1.15,2013-07-03 07:55:00,
2013-07-03 04:05:00,74.2,72.7,30.04,NE,49,0.0,5.0,95,0.00,,,0.00,Wunderground v.1.15,2013-07-03 08:05:00,
2013-07-03 04:20:00,74.2,72.7,30.04,East,80,0.0,5.0,95,0.00,,,0.00,Wunderground v.1.15,2013-07-03 08:20:00,
2013-07-03 04:22:00,74.2,73.0,30.04,East,80,0.0,1.0,95,0.00,,,0.00,weatherlink.com 1.10,2013-07-03 08:22:00,
2013-07-03 04:30:00,74.1,72.6,30.04,East,84,0.0,5.0,95,0.00,,,0.00,Wunderground v.1.15,2013-07-03 08:30:00,
2013-07-03 04:37:00,74.1,73.0,30.04,East,85,0.0,1.0,95,0.00,,,0.00,weatherlink.com 1.10,2013-07-03 08:37:00,
2013-07-03 04:45:00,74.1,72.3,30.04,ENE,77,0.0,5.0,94,0.00,,,0.00,Wunderground v.1.15,2013-07-03 08:45:00,
2013-07-03 04:52:00,74.1,72.0,30.04,SE,143,0.0,1.0,94,0.00,,,0.00,weatherlink.com 1.10,2013-07-03 08:52:00,
2013-07-03 04:55:00,74.1,72.3,30.04,ESE,120,0.0,5.0,94,0.00,,,0.00,Wunderground v.1.15,2013-07-03 08:55:00,
2013-07-03 05:00:00,74.1,72.3,30.04,NE,39,0.0,5.0,94,0.00,,,0.00,Wunderground v.1.15,2013-07-03 09:00:00,
2013-07-03 05:05:00,74.2,72.4,30.04,East,89,0.0,5.0,94,0.00,,,0.00,Wunderground v.1.15,2013-07-03 09:05:00,
2013-07-03 05:10:00,74.3,72.1,30.04,NNE,20,0.0,5.0,93,0.00,,,0.00,Wunderground v.1.15,2013-07-03 09:10:00,
2013-07-03 05:20:00,74.5,72.3,30.04,NNE,23,0.0,5.0,93,0.00,,,0.00,Wunderground v.1.15,2013-07-03 09:20:00,
2013-07-03 05:25:00,74.6,72.4,30.04,NNE,23,0.0,5.0,93,0.00,,,0.00,Wunderground v.1.15,2013-07-03 09:25:00,
2013-07-03 05:35:00,74.8,72.3,30.04,East,95,1.0,5.0,92,0.00,,,0.00,Wunderground v.1.15,2013-07-03 09:35:00,
2013-07-03 05:45:00,74.9,72.4,30.03,ESE,106,0.0,5.0,92,0.00,,,0.00,Wunderground v.1.15,2013-07-03 09:45:00,
2013-07-03 05:50:00,75.0,72.5,30.04,NNE,33,1.0,5.0,92,0.00,,,0.00,Wunderground v.1.15,2013-07-03 09:50:00,
2013-07-03 06:01:00,75.1,72.6,30.04,NNE,26,0.0,6.0,92,0.00,,,0.00,Wunderground v.1.15,2013-07-03 10:01:00,
2013-07-03 06:06:00,75.2,73.0,30.04,East,90,0.0,3.0,92,0.00,,,0.00,weatherlink.com 1.10,2013-07-03 10:06:00,
2013-07-03 06:10:00,75.2,72.7,30.04,NNE,23,0.0,6.0,92,0.00,,,0.00,Wunderground v.1.15,2013-07-03 10:10:00,
2013-07-03 06:15:00,75.2,72.7,30.04,NE,38,0.0,6.0,92,0.00,,,0.00,Wunderground v.1.15,2013-07-03 10:15:00,
2013-07-03 06:21:00,75.3,73.0,30.04,NNE,27,0.0,2.0,92,0.00,,,0.00,weatherlink.com 1.10,2013-07-03 10:21:00,
2013-07-03 06:30:00,75.4,72.9,30.04,East,94,0.0,6.0,92,0.00,,,0.00,Wunderground v.1.15,2013-07-03 10:30:00,
2013-07-03 06:35:00,75.4,72.9,30.04,NNE,27,0.0,6.0,92,0.00,,,0.00,Wunderground v.1.15,2013-07-03 10:35:00,
2013-07-03 06:45:00,75.5,73.0,30.04,NE,36,0.0,6.0,92,0.00,,,0.00,Wunderground v.1.15,2013-07-03 10:45:00,
2013-07-03 06:51:00,75.6,73.0,30.04,SE,131,1.0,3.0,92,0.00,,,0.00,weatherlink.com 1.10,2013-07-03 10:51:00,
2013-07-03 07:00:00,75.7,73.2,30.05,NE,40,0.0,6.0,92,0.00,,,0.00,Wunderground v.1.15,2013-07-03 11:00:00,
2013-07-03 07:05:00,75.8,73.3,30.05,NNE,26,0.0,6.0,92,0.00,,,0.00,Wunderground v.1.15,2013-07-03 11:05:00,
2013-07-03 07:10:00,76.0,73.5,30.05,NE,49,0.0,6.0,92,0.00,,,0.00,Wunderground v.1.15,2013-07-03 11:10:00,
2013-07-03 07:15:00,76.2,73.7,30.05,East,95,1.0,6.0,92,0.00,,,0.00,Wunderground v.1.15,2013-07-03 11:15:00,
2013-07-03 07:20:00,76.4,73.9,30.05,NNE,32,0.0,6.0,92,0.00,,,0.00,Wunderground v.1.15,2013-07-03 11:20:00,
2013-07-03 07:30:00,76.8,74.3,30.05,North,1,1.0,6.0,92,0.00,,,0.00,Wunderground v.1.15,2013-07-03 11:30:00,
2013-07-03 07:35:00,76.9,74.4,30.05,North,359,1.0,6.0,92,0.00,,,0.00,Wunderground v.1.15,2013-07-03 11:35:00,
2013-07-03 07:45:00,77.0,74.5,30.06,North,356,1.0,6.0,92,0.00,,,0.00,Wunderground v.1.15,2013-07-03 11:45:00,
2013-07-03 07:50:00,77.1,74.6,30.06,ENE,60,1.0,1.0,92,0.00,,,0.00,Wunderground v.1.15,2013-07-03 11:50:00,
2013-07-03 08:00:00,77.3,74.8,30.07,SSE,156,1.0,1.0,92,0.00,,,0.00,Wunderground v.1.15,2013-07-03 12:00:00,
2013-07-03 08:05:00,77.5,75.0,30.07,ESE,110,0.0,4.0,92,0.00,,,0.00,weatherlink.com 1.10,2013-07-03 12:05:00,
2013-07-03 08:10:00,77.6,75.1,30.07,ESE,105,1.0,1.0,92,0.00,,,0.00,Wunderground v.1.15,2013-07-03 12:10:00,
2013-07-03 08:25:00,78.2,75.4,30.07,NE,56,1.0,5.0,91,0.00,,,0.00,Wunderground v.1.15,2013-07-03 12:25:00,
2013-07-03 08:30:00,78.4,75.6,30.08,ENE,58,1.0,5.0,91,0.00,,,0.00,Wunderground v.1.15,2013-07-03 12:30:00,
2013-07-03 08:34:00,78.6,76.0,30.07,SSW,206,0.0,4.0,91,0.00,,,0.00,weatherlink.com 1.10,2013-07-03 12:34:00,
2013-07-03 08:40:00,78.7,75.5,30.08,NE,45,1.0,5.0,90,0.00,,,0.00,Wunderground v.1.15,2013-07-03 12:40:00,
2013-07-03 08:45:00,78.8,75.6,30.07,NE,48,1.0,5.0,90,0.00,,,0.00,Wunderground v.1.15,2013-07-03 12:45:00,
2013-07-03 08:55:00,79.1,75.9,30.08,NNE,30,1.0,5.0,90,0.00,,,0.00,Wunderground v.1.15,2013-07-03 12:55:00,
2013-07-03 09:00:00,79.2,76.0,30.08,NNW,330,1.0,1.0,90,0.00,,,0.00,Wunderground v.1.15,2013-07-03 13:00:00,
2013-07-03 09:10:00,79.6,76.1,30.08,East,80,1.0,5.0,89,0.00,,,0.00,Wunderground v.1.15,2013-07-03 13:10:00,
2013-07-03 09:19:00,80.0,76.0,30.08,ENE,60,1.0,5.0,88,0.00,,,0.00,weatherlink.com 1.10,2013-07-03 13:19:00,
2013-07-03 09:25:00,80.1,75.9,30.08,NNE,24,2.0,5.0,87,0.00,,,0.00,Wunderground v.1.15,2013-07-03 13:25:00,
2013-07-03 09:33:00,80.2,76.0,30.08,East,93,0.0,7.0,87,0.00,,,0.00,weatherlink.com 1.10,2013-07-03 13:33:00,
2013-07-03 09:40:00,80.4,76.5,30.08,SE,139,1.0,5.0,88,0.00,,,0.00,Wunderground v.1.15,2013-07-03 13:40:00,
2013-07-03 09:48:00,80.8,77.0,30.08,SW,217,0.0,3.0,87,0.00,,,0.00,weatherlink.com 1.10,2013-07-03 13:48:00,
2013-07-03 09:55:00,81.2,76.6,30.08,SE,126,1.0,5.0,86,0.00,,,0.00,Wunderground v.1.15,2013-07-03 13:55:00,
2013-07-03 10:00:00,81.5,76.9,30.08,ENE,75,1.0,5.0,86,0.00,,,0.00,Wunderground v.1.15,2013-07-03 14:00:00,
2013-07-03 10:10:00,81.7,76.7,30.08,SSE,155,1.0,1.0,85,0.00,,,0.00,Wunderground v.1.15,2013-07-03 14:10:00,
2013-07-03 10:15:00,81.9,76.9,30.08,East,88,1.0,5.0,85,0.00,,,0.00,Wunderground v.1.15,2013-07-03 14:15:00,
2013-07-03 10:25:00,82.2,76.9,30.08,NNE,32,1.0,5.0,84,0.00,,,0.00,Wunderground v.1.15,2013-07-03 14:25:00,
2013-07-03 10:30:00,82.3,76.6,30.08,NW,306,1.0,5.0,83,0.00,,,0.00,Wunderground v.1.15,2013-07-03 14:30:00,
2013-07-03 10:33:00,82.3,77.0,30.08,North,2,1.0,7.0,83,0.00,,,0.00,weatherlink.com 1.10,2013-07-03 14:33:00,
2013-07-03 10:35:00,82.2,76.9,30.08,NE,37,2.0,5.0,84,0.00,,,0.00,Wunderground v.1.15,2013-07-03 14:35:00,
2013-07-03 10:40:00,82.4,76.7,30.08,SSE,149,1.0,5.0,83,0.00,,,0.00,Wunderground v.1.15,2013-07-03 14:40:00,
2013-07-03 10:45:00,82.6,76.9,30.08,NE,40,1.0,5.0,83,0.00,,,0.00,Wunderground v.1.15,2013-07-03 14:45:00,
2013-07-03 10:55:00,83.2,77.1,30.08,NE,43,1.0,5.0,82,0.00,,,0.00,Wunderground v.1.15,2013-07-03 14:55:00,
2013-07-03 11:00:00,83.5,77.1,30.08,NE,37,1.0,5.0,81,0.00,,,0.00,Wunderground v.1.15,2013-07-03 15:00:00,
2013-07-03 11:05:00,83.7,76.9,30.08,WNW,285,1.0,5.0,80,0.00,,,0.00,Wunderground v.1.15,2013-07-03 15:05:00,
2013-07-03 11:10:00,84.1,77.6,30.08,North,11,1.0,1.0,81,0.00,,,0.00,Wunderground v.1.15,2013-07-03 15:10:00,
2013-07-03 11:17:00,84.5,77.0,30.08,SE,134,1.0,6.0,78,0.00,,,0.00,weatherlink.com 1.10,2013-07-03 15:17:00,
2013-07-03 11:25:00,84.6,77.0,30.08,NNE,21,2.0,5.0,78,0.00,,,0.00,Wunderground v.1.15,2013-07-03 15:25:00,
2013-07-03 11:30:00,84.7,76.3,30.08,SE,141,1.0,5.0,76,0.00,,,0.00,Wunderground v.1.15,2013-07-03 15:30:00,
2013-07-03 11:32:00,84.7,77.0,30.08,NNE,23,1.0,4.0,77,0.00,,,0.00,weatherlink.com 1.10,2013-07-03 15:32:00,
2013-07-03 11:40:00,85.4,77.4,30.08,ENE,69,1.0,5.0,77,0.00,,,0.00,Wunderground v.1.15,2013-07-03 15:40:00,
2013-07-03 11:45:00,85.5,76.7,30.08,SSW,200,1.0,5.0,75,0.00,,,0.00,Wunderground v.1.15,2013-07-03 15:45:00,
2013-07-03 11:50:00,85.5,77.1,30.08,NNW,344,2.0,2.0,76,0.00,,,0.00,Wunderground v.1.15,2013-07-03 15:50:00,
2013-07-03 11:55:00,86.0,77.5,30.08,West,280,1.0,5.0,76,0.00,,,0.00,Wunderground v.1.15,2013-07-03 15:55:00,
2013-07-03 12:00:00,86.0,76.7,30.08,ENE,69,1.0,7.0,74,0.00,,,0.00,Wunderground v.1.15,2013-07-03 16:00:00,
2013-07-03 12:10:00,86.3,77.0,30.08,ESE,123,1.0,7.0,74,0.00,,,0.00,Wunderground v.1.15,2013-07-03 16:10:00,
2013-07-03 12:15:00,86.6,77.7,30.08,South,186,1.0,7.0,75,0.00,,,0.00,Wunderground v.1.15,2013-07-03 16:15:00,
2013-07-03 12:25:00,87.6,78.3,30.08,NE,34,2.0,4.0,74,0.00,,,0.00,Wunderground v.1.15,2013-07-03 16:25:00,
2013-07-03 12:30:00,87.9,77.3,30.07,North,8,2.0,7.0,71,0.00,,,0.00,Wunderground v.1.15,2013-07-03 16:30:00,
2013-07-03 12:40:00,88.9,78.7,30.07,ENE,66,1.0,7.0,72,0.00,,,0.00,Wunderground v.1.15,2013-07-03 16:40:00,
2013-07-03 12:45:00,89.1,78.0,30.07,SW,224,2.0,7.0,70,0.00,,,0.00,Wunderground v.1.15,2013-07-03 16:45:00,
2013-07-03 12:50:00,89.4,78.8,30.07,SSE,147,2.0,2.0,71,0.00,,,0.00,Wunderground v.1.15,2013-07-03 16:50:00,
2013-07-03 12:55:00,90.1,79.4,30.06,SSE,164,2.0,7.0,71,0.00,,,0.00,Wunderground v.1.15,2013-07-03 16:55:00,
2013-07-03 13:00:00,90.5,77.1,30.06,East,86,2.0,2.0,65,0.00,,,0.00,Wunderground v.1.15,2013-07-03 17:00:00,
2013-07-03 13:10:00,90.1,78.1,30.06,ENE,60,3.0,7.0,68,0.00,,,0.00,Wunderground v.1.15,2013-07-03 17:10:00,
2013-07-03 13:15:00,90.1,77.2,30.06,WSW,248,3.0,7.0,66,0.00,,,0.00,Wunderground v.1.15,2013-07-03 17:15:00,
2013-07-03 13:25:00,89.5,76.6,30.06,West,271,2.0,7.0,66,0.00,,,0.00,Wunderground v.1.15,2013-07-03 17:25:00,
2013-07-03 13:30:00,89.3,77.0,30.06,ESE,111,2.0,9.0,67,0.00,,,0.00,weatherlink.com 1.10,2013-07-03 17:30:00,
2013-07-03 13:40:00,89.3,78.2,30.05,NE,34,1.0,1.0,70,0.00,,,0.00,Wunderground v.1.15,2013-07-03 17:40:00,
2013-07-03 13:45:00,89.5,78.0,30.05,East,81,0.0,7.0,69,0.00,,,0.00,weatherlink.com 1.10,2013-07-03 17:45:00,
2013-07-03 13:50:00,89.9,78.8,30.05,WNW,288,1.0,7.0,70,0.00,,,0.00,Wunderground v.1.15,2013-07-03 17:50:00,
2013-07-03 13:59:00,90.8,79.0,30.05,SSW,199,2.0,8.0,69,0.00,,,0.00,weatherlink.com 1.10,2013-07-03 17:59:00,
2013-07-03 14:05:00,91.3,77.9,30.04,SE,133,1.0,7.0,65,0.00,,,0.00,Wunderground v.1.15,2013-07-03 18:05:00,
2013-07-03 14:14:00,90.4,77.0,30.04,SE,127,1.0,9.0,65,0.00,,,0.00,weatherlink.com 1.10,2013-07-03 18:14:00,
2013-07-03 14:20:00,90.6,77.7,30.04,SW,225,2.0,2.0,66,0.00,,,0.00,Wunderground v.1.15,2013-07-03 18:20:00,
2013-07-03 14:25:00,90.2,77.8,30.03,North,11,2.0,7.0,67,0.00,,,0.00,Wunderground v.1.15,2013-07-03 18:25:00,
2013-07-03 14:30:00,89.9,77.5,30.03,SSE,153,1.0,7.0,67,0.00,,,0.00,Wunderground v.1.15,2013-07-03 18:30:00,
2013-07-03 14:40:00,85.7,78.4,30.03,East,82,2.0,2.0,79,0.20,,,0.04,Wunderground v.1.15,2013-07-03 18:40:00,
2013-07-03 14:45:00,84.8,78.3,30.03,ENE,58,1.0,7.0,81,0.08,,,0.04,Wunderground v.1.15,2013-07-03 18:45:00,
2013-07-03 14:55:00,84.7,79.3,30.02,East,92,0.0,7.0,84,0.00,,,0.04,Wunderground v.1.15,2013-07-03 18:55:00,
2013-07-03 15:05:00,84.7,79.0,30.02,WNW,291,0.0,7.0,83,0.00,,,0.04,Wunderground v.1.15,2013-07-03 19:05:00,
2013-07-03 15:10:00,84.7,79.3,30.02,NE,40,0.0,7.0,84,0.00,,,0.04,Wunderground v.1.15,2013-07-03 19:10:00,
2013-07-03 15:20:00,85.5,77.9,30.01,SSE,158,0.0,7.0,78,0.00,,,0.04,Wunderground v.1.15,2013-07-03 19:20:00,
2013-07-03 15:29:00,82.7,77.0,30.05,ESE,104,2.0,5.0,84,0.11,,,0.11,weatherlink.com 1.10,2013-07-03 19:29:00,
2013-07-03 15:35:00,78.7,72.7,30.07,SSW,203,3.0,7.0,82,11.08,,,0.42,Wunderground v.1.15,2013-07-03 19:35:00,
2013-07-03 15:40:00,75.5,72.0,30.09,NNE,32,6.0,6.0,89,10.87,,,1.01,Wunderground v.1.15,2013-07-03 19:40:00,
2013-07-03 15:50:00,73.8,72.0,30.07,South,186,2.0,2.0,94,2.29,,,1.59,Wunderground v.1.15,2013-07-03 19:50:00,
2013-07-03 15:58:00,73.5,72.0,30.07,SSE,154,1.0,7.0,95,1.88,,,1.95,weatherlink.com 1.10,2013-07-03 19:58:00,
2013-07-03 16:05:00,73.4,71.9,30.06,East,98,2.0,9.0,95,1.57,,,2.34,Wunderground v.1.15,2013-07-03 20:05:00,
2013-07-03 16:10:00,73.0,71.5,30.06,NNW,347,3.0,3.0,95,1.74,,,2.49,Wunderground v.1.15,2013-07-03 20:10:00,
2013-07-03 16:20:00,72.4,70.9,30.05,North,6,1.0,1.0,95,0.32,,,2.59,Wunderground v.1.15,2013-07-03 20:20:00,
2013-07-03 16:28:00,72.2,71.0,30.05,WNW,288,0.0,1.0,96,2.48,,,2.60,weatherlink.com 1.10,2013-07-03 20:28:00,
2013-07-03 16:35:00,72.2,71.0,30.06,South,172,0.0,9.0,96,0.28,,,2.63,Wunderground v.1.15,2013-07-03 20:35:00,
2013-07-03 16:43:00,72.3,71.0,30.05,SSE,153,0.0,0.0,97,1.28,,,2.65,weatherlink.com 1.10,2013-07-03 20:43:00,
2013-07-03 16:50:00,72.5,71.6,30.06,SE,129,0.0,9.0,97,0.11,,,2.67,Wunderground v.1.15,2013-07-03 20:50:00,
2013-07-03 17:00:00,72.8,71.9,30.07,SSE,148,1.0,9.0,97,0.17,,,2.70,Wunderground v.1.15,2013-07-03 21:00:00,
2013-07-03 17:05:00,73.0,72.1,30.06,SSW,210,1.0,9.0,97,0.13,,,2.71,Wunderground v.1.15,2013-07-03 21:05:00,
2013-07-03 17:12:00,73.3,72.0,30.06,SW,232,1.0,3.0,97,0.24,,,2.78,weatherlink.com 1.10,2013-07-03 21:12:00,
2013-07-03 17:20:00,73.7,72.8,30.06,SSE,158,1.0,9.0,97,0.23,,,2.81,Wunderground v.1.15,2013-07-03 21:20:00,
2013-07-03 17:27:00,74.0,73.0,30.06,ENE,75,0.0,3.0,97,0.23,,,2.82,weatherlink.com 1.10,2013-07-03 21:27:00,
2013-07-03 17:35:00,74.0,73.1,30.06,SE,141,1.0,9.0,97,0.16,,,2.84,Wunderground v.1.15,2013-07-03 21:35:00,
2013-07-03 17:45:00,74.2,73.3,30.06,SW,229,0.0,9.0,97,0.16,,,2.88,Wunderground v.1.15,2013-07-03 21:45:00,
2013-07-03 17:50:00,74.3,73.4,30.05,SSW,198,0.0,9.0,97,0.25,,,2.90,Wunderground v.1.15,2013-07-03 21:50:00,
2013-07-03 17:57:00,74.5,74.0,30.05,SW,221,0.0,1.0,97,0.22,,,2.92,weatherlink.com 1.10,2013-07-03 21:57:00,
2013-07-03 18:05:00,74.6,73.7,30.05,ESE,113,0.0,19.0,97,0.14,,,2.94,Wunderground v.1.15,2013-07-03 22:05:00,
2013-07-03 18:12:00,74.6,74.0,30.05,SW,214,0.0,2.0,97,0.17,,,2.95,weatherlink.com 1.10,2013-07-03 22:12:00,
2013-07-03 18:20:00,74.5,73.6,30.05,West,277,0.0,19.0,97,0.12,,,2.96,Wunderground v.1.15,2013-07-03 22:20:00,
2013-07-03 18:25:00,74.5,73.6,30.04,West,269,0.0,19.0,97,0.12,,,2.97,Wunderground v.1.15,2013-07-03 22:25:00,
2013-07-03 18:35:00,74.6,73.7,30.05,West,272,0.0,19.0,97,0.04,,,2.97,Wunderground v.1.15,2013-07-03 22:35:00,
2013-07-03 18:42:00,74.6,74.0,30.05,SSE,154,0.0,1.0,98,0.10,,,2.97,weatherlink.com 1.10,2013-07-03 22:42:00,
2013-07-03 18:50:00,74.7,74.1,30.05,SSE,165,0.0,19.0,98,0.00,,,2.98,Wunderground v.1.15,2013-07-03 22:50:00,
2013-07-03 18:55:00,74.8,74.2,30.05,East,92,0.0,19.0,98,0.00,,,2.98,Wunderground v.1.15,2013-07-03 22:55:00,
2013-07-03 19:00:00,74.8,74.2,30.05,ENE,68,0.0,19.0,98,0.00,,,2.98,Wunderground v.1.15,2013-07-03 23:00:00,
2013-07-03 19:10:00,74.9,74.3,30.04,ENE,68,0.0,19.0,98,0.00,,,2.98,Wunderground v.1.15,2013-07-03 23:10:00,
2013-07-03 19:20:00,75.0,74.4,30.04,ENE,58,0.0,19.0,98,0.00,,,2.98,Wunderground v.1.15,2013-07-03 23:20:00,
2013-07-03 19:26:00,75.0,74.0,30.04,ENE,65,2.0,2.0,98,0.01,,,2.98,weatherlink.com 1.10,2013-07-03 23:26:00,
2013-07-03 19:35:00,75.0,74.4,30.05,ENE,62,0.0,19.0,98,0.00,,,2.98,Wunderground v.1.15,2013-07-03 23:35:00,
2013-07-03 19:45:00,75.1,74.5,30.05,ENE,60,0.0,19.0,98,0.00,,,2.98,Wunderground v.1.15,2013-07-03 23:45:00,
2013-07-03 19:55:00,75.1,74.5,30.05,ENE,76,0.0,19.0,98,0.00,,,2.98,Wunderground v.1.15,2013-07-03 23:55:00,
2013-07-03 20:00:00,75.2,74.6,30.05,NE,34,0.0,10.0,98,0.00,,,2.98,Wunderground v.1.15,2013-07-04 00:00:00,
2013-07-03 20:05:00,75.1,74.5,30.05,East,93,0.0,10.0,98,0.00,,,2.98,Wunderground v.1.15,2013-07-04 00:05:00,
2013-07-03 20:15:00,75.1,74.5,30.06,NE,44,0.0,10.0,98,0.00,,,2.98,Wunderground v.1.15,2013-07-04 00:15:00,
2013-07-03 20:20:00,75.2,74.6,30.06,NE,44,1.0,10.0,98,0.00,,,2.98,Wunderground v.1.15,2013-07-04 00:20:00,
2013-07-03 20:25:00,75.1,74.0,30.06,NNE,30,1.0,4.0,98,0.00,,,2.98,weatherlink.com 1.10,2013-07-04 00:25:00,
2013-07-03 20:35:00,75.1,74.5,30.05,NE,50,0.0,10.0,98,0.00,,,2.98,Wunderground v.1.15,2013-07-04 00:35:00,
2013-07-03 20:40:00,75.1,74.5,30.06,ENE,70,0.0,10.0,98,0.00,,,2.98,Wunderground v.1.15,2013-07-04 00:40:00,
2013-07-03 20:50:00,75.1,74.5,30.06,North,353,0.0,10.0,98,0.00,,,2.98,Wunderground v.1.15,2013-07-04 00:50:00,
2013-07-03 20:55:00,75.1,74.5,30.06,West,281,0.0,10.0,98,0.00,,,2.98,Wunderground v.1.15,2013-07-04 00:55:00,
2013-07-03 21:05:00,75.1,74.5,30.06,NNW,333,0.0,10.0,98,0.00,,,2.98,Wunderground v.1.15,2013-07-04 01:05:00,
2013-07-03 21:15:00,75.0,74.4,30.06,East,84,0.0,10.0,98,0.00,,,2.98,Wunderground v.1.15,2013-07-04 01:15:00,
2013-07-03 21:24:00,74.9,74.0,30.06,ENE,62,0.0,1.0,98,0.00,,,2.98,weatherlink.com 1.10,2013-07-04 01:24:00,
2013-07-03 21:30:00,74.8,74.2,30.06,ENE,60,0.0,10.0,98,0.00,,,2.98,Wunderground v.1.15,2013-07-04 01:30:00,
2013-07-03 21:40:00,74.7,74.1,30.06,NE,53,0.0,10.0,98,0.00,,,2.98,Wunderground v.1.15,2013-07-04 01:40:00,
2013-07-03 21:50:00,74.7,74.1,30.08,NNE,31,0.0,10.0,98,0.00,,,2.98,Wunderground v.1.15,2013-07-04 01:50:00,
2013-07-03 21:55:00,74.8,74.2,30.08,West,264,0.0,10.0,98,0.00,,,2.98,Wunderground v.1.15,2013-07-04 01:55:00,
2013-07-03 22:00:00,74.8,74.2,30.08,ENE,70,0.0,3.0,98,0.00,,,2.98,Wunderground v.1.15,2013-07-04 02:00:00,
2013-07-03 22:08:00,74.7,74.0,30.08,ESE,108,0.0,3.0,98,0.00,,,2.98,weatherlink.com 1.10,2013-07-04 02:08:00,
2013-07-03 22:15:00,74.6,74.0,30.08,ENE,75,0.0,3.0,98,0.00,,,2.98,Wunderground v.1.15,2013-07-04 02:15:00,
2013-07-03 22:23:00,74.6,74.0,30.08,ESE,105,0.0,2.0,98,0.00,,,2.98,weatherlink.com 1.10,2013-07-04 02:23:00,
2013-07-03 22:30:00,74.6,74.0,30.08,NE,44,0.0,3.0,98,0.00,,,2.98,Wunderground v.1.15,2013-07-04 02:30:00,
2013-07-03 22:35:00,74.7,74.1,30.09,NE,56,0.0,3.0,98,0.00,,,2.98,Wunderground v.1.15,2013-07-04 02:35:00,
2013-07-03 22:45:00,74.6,74.0,30.08,ENE,64,0.0,3.0,98,0.00,,,2.98,Wunderground v.1.15,2013-07-04 02:45:00,
2013-07-03 22:50:00,74.5,73.9,30.09,SE,134,0.0,3.0,98,0.00,,,2.98,Wunderground v.1.15,2013-07-04 02:50:00,
2013-07-03 22:55:00,74.5,73.9,30.09,North,4,0.0,3.0,98,0.00,,,2.98,Wunderground v.1.15,2013-07-04 02:55:00,
2013-07-03 23:05:00,74.5,73.9,30.09,NE,47,0.0,3.0,98,0.00,,,2.98,Wunderground v.1.15,2013-07-04 03:05:00,
2013-07-03 23:15:00,74.5,73.9,30.09,ENE,68,0.0,3.0,98,0.00,,,2.98,Wunderground v.1.15,2013-07-04 03:15:00,
2013-07-03 23:22:00,74.4,74.0,30.09,NE,56,0.0,2.0,98,0.00,,,2.98,weatherlink.com 1.10,2013-07-04 03:22:00,
2013-07-03 23:30:00,74.4,73.8,30.10,East,97,0.0,3.0,98,0.00,,,2.98,Wunderground v.1.15,2013-07-04 03:30:00,
2013-07-03 23:35:00,74.4,73.8,30.10,NNE,13,0.0,3.0,98,0.00,,,2.98,Wunderground v.1.15,2013-07-04 03:35:00,
2013-07-03 23:40:00,74.4,73.8,30.10,North,1,0.0,3.0,98,0.00,,,2.98,Wunderground v.1.15,2013-07-04 03:40:00,
2013-07-03 23:50:00,74.3,73.7,30.10,East,81,0.0,3.0,98,0.00,,,2.98,Wunderground v.1.15,2013-07-04 03:50:00,